Location: Sun City Center
(27.6996°N, 82.3528°W)
Time: 19:08:47
(UTC-05:00)

Cosmos 2084 Rocket - Visible Passes

Search period start: 03 March 2015 00:00
Search period end: 13 March 2015 01:00
Orbit: 534 x 658 km, 62.8° (Epoch: 02 March)

Date Brightness Start Highest point End Pass type
(mag) Time Alt. Az. Time Alt. Az. Time Alt. Az.
03 Mar 5.1 05:15:45 23° SSW 05:15:45 23° SSW 05:17:50 10° S visible
03 Mar 5.1 19:08:21 10° WSW 19:11:58 32° WNW 19:15:36 10° N visible
04 Mar 6.1 19:19:25 10° W 19:22:04 16° NW 19:24:36 10° NNW visible
